QPF
0.02 0.02 0.02 0.03 0.04 0.05 0.05 0.05 0.05 0.05 0.05 0.03 0.02 0.01 0.01 0.00 0.00 0.00 0.00 0.00 0.00 0.00 0.00 0.00 0.00 0.00 0.01 0.01 0.01 0.01 0.02 0.02 0.02 0.01 0.02 0.02 0.01 0.01 0.01 0.01 0.02 0.03 0.05
0.02 0.02 0.02 0.02 0.03 0.03 0.03 0.03 0.05 0.06 0.05 0.04 0.03 0.01 0.01 0.00 0.00 0.00 0.00 0.00 0.00 0.00 0.00 0.00 0.00 0.00 0.01 0.01 0.01 0.01 0.02 0.02 0.01 0.01 0.02 0.03 0.02 0.02 0.02 0.02 0.02 0.02 0.03
0.01 0.01 0.02 0.03 0.03 0.02 0.02 0.03 0.03 0.04 0.04 0.04 0.04 0.02 0.01 0.01 0.00 0.00 0.00 0.00 0.00 0.00 0.00 0.00 0.00 0.00 0.01 0.01 0.01 0.01 0.02 0.02 0.02 0.01 0.01 0.02 0.02 0.02 0.02 0.03 0.03 0.03 0.03
0.00 0.01 0.02 0.03 0.02 0.02 0.02 0.03 0.05 0.04 0.04 0.04 0.04 0.03 0.02 0.01 0.01 0.00 0.00 0.01 0.00 0.00 0.01 0.01 0.00 0.00 0.01 0.01 0.02 0.02 0.02 0.02 0.01 0.01 0.01 0.01 0.01 0.02 0.02 0.02 0.03 0.03 0.03
0.00 0.00 0.01 0.01 0.01 0.01 0.02 0.03 0.07 0.08 0.04 0.03 0.03 0.04 0.03 0.02 0.01 0.00 0.00 0.00 0.00 0.00 0.01 0.01 0.00 0.01 0.01 0.01 0.01 0.02 0.02 0.02 0.02 0.01 0.00 0.00 0.01 0.01 0.02 0.02 0.02 0.03 0.03
0.00 0.00 0.01 0.01 0.01 0.01 0.01 0.01 0.04 0.08 0.05 0.03 0.03 0.04 0.04 0.04 0.02 0.01 0.01 0.00 0.00 0.01 0.01 0.01 0.02 0.02 0.02 0.02 0.01 0.02 0.03 0.03 0.02 0.02 0.01 0.01 0.01 0.01 0.02 0.02 0.02 0.03 0.03
0.00 0.00 0.00 0.01 0.01 0.01 0.01 0.01 0.02 0.05 0.06 0.05 0.04 0.04 0.05 0.06 0.06 0.04 0.03 0.02 0.01 0.01 0.02 0.02 0.03 0.03 0.03 0.03 0.02 0.02 0.02 0.02 0.02 0.02 0.02 0.01 0.01 0.02 0.02 0.02 0.02 0.03 0.03
0.00 0.00 0.00 0.01 0.01 0.01 0.01 0.01 0.01 0.04 0.07 0.06 0.06 0.05 0.05 0.06 0.07 0.07 0.08 0.07 0.05 0.03 0.03 0.04 0.05 0.04 0.05 0.05 0.04 0.02 0.02 0.02 0.01 0.02 0.02 0.02 0.01 0.01 0.01 0.02 0.02 0.01 0.02
0.00 0.00 0.01 0.01 0.01 0.01 0.01 0.01 0.01 0.02 0.06 0.08 0.08 0.05 0.05 0.06 0.05 0.04 0.04 0.06 0.07 0.06 0.05 0.06 0.07 0.06 0.06 0.06 0.04 0.02 0.02 0.03 0.03 0.03 0.03 0.02 0.02 0.01 0.01 0.02 0.02 0.02 0.02
0.00 0.00 0.01 0.01 0.01 0.01 0.02 0.02 0.02 0.02 0.03 0.07 0.09 0.08 0.05 0.06 0.06 0.05 0.03 0.03 0.03 0.04 0.04 0.04 0.06 0.07 0.06 0.06 0.05 0.03 0.04 0.05 0.04 0.05 0.05 0.04 0.03 0.02 0.02 0.02 0.03 0.03 0.03
0.00 0.00 0.00 0.01 0.01 0.01 0.02 0.02 0.02 0.02 0.03 0.04 0.06 0.08 0.07 0.07 0.06 0.07 0.06 0.03 0.03 0.05 0.05 0.04 0.05 0.05 0.04 0.04 0.04 0.04 0.04 0.05 0.06 0.08 0.10 0.08 0.06 0.05 0.04 0.03 0.05 0.06 0.05
0.00 0.00 0.01 0.01 0.02 0.01 0.02 0.02 0.02 0.03 0.03 0.03 0.03 0.05 0.07 0.08 0.07 0.08 0.10 0.07 0.04 0.05 0.05 0.04 0.04 0.04 0.03 0.02 0.02 0.03 0.04 0.04 0.04 0.05 0.08 0.09 0.08 0.07 0.07 0.07 0.06 0.06 0.05
0.00 0.01 0.01 0.01 0.01 0.02 0.02 0.03 0.03 0.03 0.03 0.03 0.03 0.03 0.04 0.06 0.07 0.07 0.10 0.09 0.07 0.05 0.03 0.03 0.03 0.02 0.02 0.01 0.02 0.03 0.04 0.06 0.05 0.05 0.04 0.04 0.05 0.07 0.08 0.08 0.07 0.06 0.05
0.00 0.01 0.01 0.01 0.01 0.01 0.02 0.03 0.03 0.03 0.03 0.04 0.03 0.03 0.03 0.04 0.06 0.07 0.09 0.09 0.06 0.04 0.03 0.02 0.02 0.02 0.02 0.01 0.01 0.02 0.03 0.03 0.04 0.04 0.05 0.04 0.04 0.05 0.06 0.06 0.06 0.06 0.05
0.00 0.01 0.01 0.01 0.01 0.01 0.02 0.03 0.03 0.02 0.02 0.03 0.03 0.03 0.02 0.03 0.06 0.06 0.08 0.08 0.07 0.03 0.02 0.02 0.02 0.02 0.02 0.01 0.01 0.02 0.03 0.03 0.03 0.03 0.04 0.04 0.04 0.05 0.06 0.06 0.05 0.05 0.04
0.00 0.00 0.00 0.01 0.01 0.01 0.02 0.02 0.02 0.02 0.02 0.03 0.04 0.03 0.03 0.04 0.06 0.06 0.05 0.06 0.06 0.03 0.02 0.02 0.02 0.02 0.02 0.02 0.02 0.03 0.05 0.05 0.04 0.03 0.04 0.04 0.04 0.04 0.05 0.06 0.07 0.06 0.04
0.00 0.00 0.00 0.00 0.00 0.01 0.01 0.02 0.02 0.02 0.02 0.03 0.04 0.03 0.03 0.05 0.07 0.07 0.04 0.04 0.04 0.03 0.03 0.02 0.02 0.02 0.02 0.02 0.02 0.03 0.05 0.05 0.05 0.06 0.06 0.05 0.04 0.05 0.06 0.06 0.05 0.04 0.04
0.00 0.00 0.00 0.00 0.00 0.00 0.01 0.01 0.02 0.01 0.01 0.02 0.04 0.03 0.03 0.06 0.10 0.09 0.04 0.03 0.03 0.03 0.03 0.02 0.02 0.02 0.01 0.01 0.01 0.02 0.03 0.05 0.05 0.05 0.06 0.07 0.06 0.04 0.05 0.05 0.04 0.04 0.03
0.00 0.00 0.00 0.00 0.00 0.00 0.01 0.01 0.01 0.01 0.01 0.01 0.03 0.04 0.04 0.07 0.10 0.08 0.05 0.03 0.02 0.02 0.02 0.02 0.02 0.01 0.01 0.01 0.01 0.01 0.01 0.02 0.03 0.03 0.04 0.04 0.05 0.05 0.04 0.04 0.04 0.03 0.03
0.00 0.00 0.00 0.00 0.01 0.01 0.01 0.01 0.01 0.01 0.01 0.01 0.02 0.03 0.05 0.08 0.08 0.05 0.05 0.03 0.02 0.01 0.01 0.02 0.02 0.01 0.01 0.01 0.01 0.01 0.01 0.01 0.02 0.03 0.04 0.04 0.04 0.05 0.05 0.04 0.04 0.04 0.03
0.01 0.01 0.01 0.01 0.01 0.01 0.01 0.01 0.01 0.01 0.01 0.02 0.02 0.03 0.04 0.06 0.05 0.03 0.02 0.03 0.02 0.02 0.02 0.02 0.02 0.02 0.01 0.01 0.01 0.01 0.01 0.01 0.02 0.03 0.05 0.07 0.08 0.08 0.07 0.06 0.05 0.05 0.04
0.02 0.01 0.01 0.01 0.02 0.02 0.01 0.02 0.02 0.02 0.01 0.02 0.02 0.03 0.03 0.04 0.03 0.01 0.01 0.01 0.02 0.03 0.03 0.04 0.04 0.03 0.02 0.02 0.02 0.02 0.01 0.02 0.02 0.03 0.04 0.05 0.07 0.08 0.07 0.05 0.04 0.03 0.02
0.04 0.03 0.03 0.03 0.03 0.03 0.02 0.02 0.02 0.01 0.01 0.01 0.01 0.01 0.02 0.02 0.02 0.01 0.01 0.01 0.01 0.01 0.02 0.03 0.04 0.04 0.03 0.03 0.02 0.02 0.02 0.02 0.02 0.02 0.04 0.04 0.04 0.03 0.04 0.05 0.03 0.02 0.01
0.06 0.05 0.04 0.05 0.06 0.05 0.02 0.02 0.02 0.01 0.01 0.01 0.01 0.01 0.01 0.01 0.02 0.03 0.02 0.02 0.02 0.03 0.03 0.03 0.03 0.03 0.03 0.02 0.02 0.02 0.02 0.02 0.02 0.02 0.02 0.03 0.03 0.03 0.03 0.04 0.04 0.02 0.02
0.06 0.05 0.06 0.06 0.08 0.07 0.03 0.02 0.02 0.02 0.02 0.02 0.02 0.01 0.01 0.01 0.01 0.03 0.03 0.03 0.03 0.04 0.04 0.04 0.03 0.02 0.02 0.02 0.02 0.02 0.03 0.03 0.02 0.02 0.01 0.02 0.02 0.03 0.04 0.04 0.04 0.03 0.03
0.06 0.06 0.06 0.06 0.07 0.07 0.05 0.02 0.01 0.01 0.02 0.03 0.02 0.02 0.01 0.01 0.02 0.03 0.04 0.06 0.06 0.05 0.04 0.04 0.03 0.02 0.02 0.02 0.02 0.02 0.02 0.02 0.02 0.01 0.01 0.02 0.03 0.03 0.04 0.04 0.04 0.04 0.04
MSLP
1021.86 1021.88 1021.91 1021.92 1021.87 1021.75 1021.57 1021.35 1021.12 1020.92 1020.79 1020.73 1020.74 1020.81 1020.90 1020.96 1020.96 1020.86 1020.66 1020.37 1020.00 1019.59 1019.18 1018.80 1018.48 1018.20 1017.97 1017.76 1017.55 1017.32 1017.06 1016.76 1016.46 1016.15 1015.87 1015.64 1015.44 1015.29 1015.16 1015.03 1014.90 1014.73 1014.54
1021.97 1022.09 1022.20 1022.26 1022.25 1022.14 1021.96 1021.73 1021.50 1021.30 1021.18 1021.16 1021.21 1021.33 1021.47 1021.57 1021.59 1021.51 1021.32 1021.03 1020.68 1020.30 1019.93 1019.59 1019.31 1019.08 1018.89 1018.70 1018.50 1018.27 1018.00 1017.71 1017.40 1017.08 1016.79 1016.53 1016.29 1016.08 1015.87 1015.64 1015.40 1015.13 1014.84
1022.02 1022.22 1022.41 1022.54 1022.57 1022.50 1022.34 1022.12 1021.90 1021.73 1021.64 1021.64 1021.72 1021.87 1022.01 1022.12 1022.15 1022.07 1021.88 1021.61 1021.28 1020.94 1020.61 1020.33 1020.11 1019.92 1019.76 1019.60 1019.42 1019.20 1018.95 1018.67 1018.38 1018.09 1017.82 1017.56 1017.30 1017.04 1016.76 1016.43 1016.07 1015.69 1015.29
1021.95 1022.24 1022.51 1022.71 1022.80 1022.78 1022.67 1022.49 1022.31 1022.17 1022.11 1022.14 1022.24 1022.38 1022.53 1022.62 1022.63 1022.54 1022.35 1022.09 1021.80 1021.50 1021.24 1021.02 1020.85 1020.71 1020.59 1020.45 1020.29 1020.09 1019.86 1019.62 1019.37 1019.12 1018.89 1018.66 1018.41 1018.12 1017.78 1017.37 1016.90 1016.38 1015.86
1021.77 1022.15 1022.50 1022.77 1022.93 1022.97 1022.92 1022.80 1022.67 1022.59 1022.56 1022.62 1022.73 1022.87 1022.99 1023.06 1023.04 1022.93 1022.75 1022.51 1022.25 1022.01 1021.81 1021.65 1021.54 1021.45 1021.35 1021.24 1021.09 1020.91 1020.71 1020.50 1020.30 1020.11 1019.93 1019.74 1019.52 1019.22 1018.84 1018.35 1017.79 1017.16 1016.52
1021.51 1021.96 1022.39 1022.73 1022.96 1023.07 1023.08 1023.04 1022.98 1022.95 1022.98 1023.06 1023.18 1023.31 1023.41 1023.45 1023.40 1023.29 1023.10 1022.89 1022.67 1022.49 1022.35 1022.25 1022.18 1022.12 1022.05 1021.95 1021.81 1021.64 1021.46 1021.29 1021.13 1021.00 1020.88 1020.73 1020.54 1020.25 1019.84 1019.31 1018.66 1017.94 1017.19
1021.22 1021.73 1022.22 1022.62 1022.91 1023.09 1023.18 1023.20 1023.22 1023.25 1023.33 1023.44 1023.57 1023.70 1023.78 1023.80 1023.74 1023.61 1023.44 1023.25 1023.08 1022.94 1022.85 1022.80 1022.76 1022.73 1022.67 1022.57 1022.43 1022.27 1022.10 1021.95 1021.83 1021.74 1021.66 1021.55 1021.39 1021.11 1020.69 1020.13 1019.44 1018.65 1017.82
1020.93 1021.50 1022.03 1022.48 1022.83 1023.06 1023.21 1023.31 1023.39 1023.49 1023.61 1023.76 1023.91 1024.04 1024.11 1024.12 1024.05 1023.93 1023.77 1023.60 1023.47 1023.37 1023.32 1023.30 1023.29 1023.26 1023.20 1023.10 1022.96 1022.79 1022.62 1022.48 1022.38 1022.31 1022.25 1022.18 1022.03 1021.76 1021.35 1020.78 1020.07 1019.26 1018.39
1020.68 1021.29 1021.85 1022.34 1022.72 1023.00 1023.20 1023.35 1023.50 1023.65 1023.82 1024.01 1024.18 1024.32 1024.40 1024.41 1024.34 1024.23 1024.09 1023.95 1023.84 1023.77 1023.74 1023.74 1023.74 1023.71 1023.65 1023.53 1023.38 1023.20 1023.03 1022.88 1022.78 1022.71 1022.66 1022.59 1022.45 1022.20 1021.80 1021.25 1020.55 1019.74 1018.87
1020.47 1021.10 1021.68 1022.18 1022.58 1022.89 1023.14 1023.34 1023.53 1023.74 1023.95 1024.17 1024.37 1024.53 1024.63 1024.65 1024.60 1024.50 1024.38 1024.26 1024.17 1024.12 1024.10 1024.10 1024.10 1024.07 1024.00 1023.88 1023.71 1023.52 1023.33 1023.18 1023.06 1022.98 1022.92 1022.83 1022.69 1022.45 1022.07 1021.55 1020.89 1020.13 1019.29
1020.26 1020.90 1021.48 1021.99 1022.40 1022.74 1023.01 1023.25 1023.48 1023.73 1023.98 1024.24 1024.47 1024.66 1024.78 1024.82 1024.80 1024.72 1024.62 1024.52 1024.45 1024.40 1024.39 1024.39 1024.38 1024.34 1024.26 1024.13 1023.96 1023.76 1023.57 1023.40 1023.26 1023.15 1023.06 1022.96 1022.80 1022.57 1022.21 1021.74 1021.14 1020.44 1019.67
1020.01 1020.64 1021.22 1021.72 1022.15 1022.49 1022.79 1023.06 1023.33 1023.62 1023.91 1024.20 1024.46 1024.68 1024.83 1024.91 1024.92 1024.88 1024.80 1024.72 1024.66 1024.62 1024.60 1024.59 1024.58 1024.53 1024.44 1024.31 1024.14 1023.95 1023.75 1023.56 1023.40 1023.27 1023.15 1023.02 1022.85 1022.62 1022.29 1021.87 1021.35 1020.73 1020.06
1019.66 1020.28 1020.85 1021.35 1021.77 1022.14 1022.46 1022.76 1023.07 1023.39 1023.72 1024.04 1024.34 1024.59 1024.79 1024.90 1024.95 1024.95 1024.91 1024.85 1024.80 1024.76 1024.74 1024.72 1024.70 1024.64 1024.56 1024.43 1024.27 1024.08 1023.89 1023.70 1023.52 1023.36 1023.21 1023.06 1022.88 1022.65 1022.35 1021.98 1021.54 1021.02 1020.44
1019.19 1019.79 1020.34 1020.84 1021.28 1021.67 1022.02 1022.36 1022.70 1023.06 1023.42 1023.78 1024.11 1024.40 1024.64 1024.80 1024.89 1024.93 1024.93 1024.90 1024.87 1024.84 1024.81 1024.79 1024.75 1024.69 1024.61 1024.49 1024.35 1024.17 1023.99 1023.80 1023.62 1023.44 1023.27 1023.09 1022.90 1022.68 1022.41 1022.10 1021.73 1021.31 1020.83
1018.61 1019.17 1019.72 1020.22 1020.67 1021.09 1021.48 1021.86 1022.24 1022.63 1023.03 1023.42 1023.79 1024.12 1024.40 1024.60 1024.75 1024.83 1024.88 1024.88 1024.87 1024.84 1024.82 1024.78 1024.74 1024.68 1024.60 1024.49 1024.36 1024.20 1024.03 1023.85 1023.67 1023.48 1023.30 1023.11 1022.92 1022.71 1022.47 1022.22 1021.92 1021.59 1021.20
1017.94 1018.48 1019.01 1019.52 1019.99 1020.44 1020.87 1021.30 1021.72 1022.15 1022.58 1023.00 1023.40 1023.76 1024.07 1024.33 1024.52 1024.66 1024.74 1024.78 1024.79 1024.78 1024.75 1024.71 1024.66 1024.59 1024.51 1024.41 1024.29 1024.15 1024.00 1023.83 1023.66 1023.47 1023.29 1023.10 1022.91 1022.72 1022.52 1022.31 1022.08 1021.82 1021.51
1017.24 1017.75 1018.28 1018.79 1019.29 1019.78 1020.25 1020.72 1021.18 1021.64 1022.09 1022.53 1022.95 1023.34 1023.68 1023.98 1024.21 1024.39 1024.52 1024.59 1024.62 1024.62 1024.59 1024.55 1024.48 1024.41 1024.32 1024.22 1024.11 1023.99 1023.86 1023.71 1023.55 1023.38 1023.21 1023.03 1022.85 1022.68 1022.51 1022.34 1022.17 1021.97 1021.74
1016.57 1017.06 1017.58 1018.10 1018.62 1019.14 1019.65 1020.15 1020.64 1021.11 1021.58 1022.03 1022.47 1022.87 1023.23 1023.55 1023.82 1024.03 1024.19 1024.29 1024.34 1024.35 1024.32 1024.26 1024.19 1024.10 1024.01 1023.91 1023.81 1023.71 1023.60 1023.47 1023.34 1023.19 1023.03 1022.87 1022.71 1022.56 1022.42 1022.30 1022.17 1022.02 1021.84
1016.00 1016.47 1016.97 1017.49 1018.03 1018.56 1019.09 1019.62 1020.12 1020.61 1021.08 1021.52 1021.95 1022.35 1022.72 1023.05 1023.34 1023.57 1023.75 1023.87 1023.93 1023.94 1023.91 1023.84 1023.76 1023.67 1023.57 1023.48 1023.39 1023.30 1023.21 1023.11 1023.00 1022.88 1022.75 1022.61 1022.48 1022.35 1022.24 1022.15 1022.05 1021.95 1021.82
1015.54 1015.98 1016.47 1016.99 1017.53 1018.07 1018.61 1019.14 1019.64 1020.12 1020.57 1021.01 1021.41 1021.80 1022.16 1022.48 1022.77 1023.01 1023.19 1023.32 1023.38 1023.39 1023.36 1023.29 1023.20 1023.10 1023.00 1022.92 1022.84 1022.77 1022.71 1022.64 1022.56 1022.47 1022.37 1022.26 1022.15 1022.04 1021.95 1021.88 1021.81 1021.74 1021.64
1015.20 1015.62 1016.09 1016.60 1017.12 1017.66 1018.19 1018.71 1019.20 1019.66 1020.09 1020.49 1020.87 1021.23 1021.56 1021.86 1022.14 1022.36 1022.54 1022.66 1022.72 1022.73 1022.69 1022.62 1022.52 1022.42 1022.33 1022.26 1022.20 1022.16 1022.12 1022.08 1022.03 1021.97 1021.89 1021.80 1021.70 1021.61 1021.54 1021.47 1021.43 1021.38 1021.31
1014.97 1015.37 1015.82 1016.30 1016.81 1017.33 1017.84 1018.33 1018.79 1019.23 1019.62 1019.99 1020.33 1020.65 1020.96 1021.23 1021.47 1021.68 1021.84 1021.94 1021.99 1021.98 1021.94 1021.86 1021.76 1021.67 1021.59 1021.53 1021.49 1021.47 1021.46 1021.44 1021.42 1021.37 1021.31 1021.23 1021.14 1021.06 1020.99 1020.93 1020.88 1020.85 1020.81
1014.83 1015.21 1015.64 1016.09 1016.57 1017.06 1017.54 1018.01 1018.44 1018.84 1019.20 1019.53 1019.84 1020.12 1020.38 1020.62 1020.83 1021.00 1021.13 1021.20 1021.23 1021.21 1021.15 1021.06 1020.97 1020.88 1020.81 1020.76 1020.74 1020.73 1020.73 1020.73 1020.72 1020.68 1020.62 1020.54 1020.45 1020.36 1020.28 1020.22 1020.17 1020.15 1020.13
1014.75 1015.11 1015.51 1015.94 1016.39 1016.85 1017.30 1017.73 1018.13 1018.50 1018.83 1019.13 1019.40 1019.65 1019.88 1020.07 1020.24 1020.37 1020.46 1020.50 1020.49 1020.44 1020.36 1020.27 1020.16 1020.07 1020.01 1019.96 1019.95 1019.95 1019.95 1019.95 1019.92 1019.88 1019.80 1019.71 1019.60 1019.49 1019.40 1019.33 1019.28 1019.27 1019.27
1014.71 1015.05 1015.43 1015.83 1016.25 1016.67 1017.09 1017.50 1017.87 1018.21 1018.52 1018.80 1019.04 1019.26 1019.45 1019.60 1019.73 1019.81 1019.85 1019.85 1019.80 1019.72 1019.61 1019.49 1019.38 1019.27 1019.20 1019.15 1019.12 1019.10 1019.09 1019.07 1019.02 1018.94 1018.84 1018.72 1018.58 1018.45 1018.34 1018.26 1018.22 1018.21 1018.24
1014.68 1015.02 1015.37 1015.74 1016.13 1016.53 1016.92 1017.30 1017.65 1017.97 1018.26 1018.52 1018.74 1018.93 1019.09 1019.21 1019.29 1019.32 1019.32 1019.26 1019.17 1019.04 1018.90 1018.74 1018.60 1018.47 1018.37 1018.30 1018.24 1018.19 1018.14 1018.08 1017.99 1017.87 1017.73 1017.56 1017.40 1017.24 1017.12 1017.03 1017.00 1017.01 1017.06
Thickness
5721 5720 5719 5716 5715 5713 5712 5709 5707 5705 5703 5701 5699 5697 5695 5694 5693 5691 5690 5689 5688 5687 5686 5685 5683 5682 5682 5680 5680 5679 5679 5678 5678 5678 5678 5678 5677 5676 5674 5674 5674 5674 5673
5718 5717 5715 5714 5712 5710 5708 5706 5704 5702 5700 5697 5696 5694 5692 5690 5688 5686 5685 5684 5683 5681 5680 5679 5678 5676 5675 5674 5673 5672 5672 5672 5672 5672 5672 5671 5671 5670 5669 5668 5667 5668 5667
5715 5715 5714 5712 5709 5707 5705 5703 5701 5700 5697 5695 5692 5689 5687 5685 5683 5681 5679 5678 5677 5676 5674 5673 5672 5671 5670 5668 5667 5666 5665 5666 5666 5666 5665 5664 5662 5661 5662 5662 5662 5661 5661
5713 5712 5710 5709 5707 5705 5704 5702 5699 5697 5694 5691 5688 5685 5682 5680 5678 5676 5674 5673 5672 5670 5668 5667 5666 5666 5664 5662 5661 5660 5660 5659 5659 5659 5658 5658 5656 5654 5653 5655 5656 5655 5654
5710 5709 5708 5706 5705 5704 5701 5699 5696 5693 5690 5688 5684 5682 5679 5676 5673 5671 5669 5668 5666 5665 5663 5662 5661 5660 5659 5657 5656 5654 5654 5654 5653 5653 5652 5651 5650 5650 5649 5647 5647 5647 5647
5706 5705 5705 5703 5701 5699 5697 5694 5692 5688 5685 5683 5681 5678 5675 5671 5667 5665 5663 5662 5661 5659 5658 5656 5655 5654 5653 5651 5650 5649 5648 5648 5647 5647 5646 5645 5644 5643 5642 5641 5640 5640 5640
5701 5700 5698 5697 5695 5693 5691 5690 5687 5684 5681 5679 5677 5675 5672 5668 5665 5661 5659 5657 5656 5654 5653 5651 5650 5649 5647 5645 5644 5644 5643 5643 5642 5641 5641 5639 5638 5637 5636 5635 5635 5634 5635
5696 5694 5693 5691 5690 5689 5687 5686 5684 5681 5678 5675 5674 5671 5668 5664 5662 5658 5656 5653 5651 5649 5647 5646 5644 5643 5641 5640 5638 5638 5638 5638 5637 5636 5635 5633 5632 5631 5630 5629 5627 5628 5630
5688 5687 5687 5686 5685 5684 5683 5682 5680 5678 5675 5672 5669 5667 5664 5660 5657 5654 5652 5649 5647 5644 5642 5641 5639 5637 5636 5634 5633 5633 5633 5633 5632 5631 5630 5629 5627 5626 5625 5624 5623 5621 5622
5682 5682 5681 5680 5680 5679 5678 5678 5676 5674 5670 5667 5664 5661 5658 5655 5652 5650 5647 5644 5642 5639 5638 5637 5635 5633 5632 5630 5628 5628 5627 5627 5626 5625 5624 5623 5622 5620 5619 5618 5617 5616 5615
5677 5676 5675 5675 5674 5673 5672 5671 5670 5668 5665 5662 5659 5656 5653 5650 5647 5644 5642 5639 5637 5634 5633 5632 5630 5628 5627 5625 5623 5623 5622 5622 5622 5621 5619 5617 5615 5613 5612 5612 5611 5610 5609
5672 5671 5670 5669 5667 5666 5666 5665 5664 5662 5659 5656 5653 5650 5647 5644 5642 5639 5637 5634 5631 5629 5628 5626 5625 5623 5622 5620 5619 5618 5617 5616 5615 5614 5612 5611 5609 5607 5606 5605 5605 5604 5603
5665 5664 5662 5662 5661 5660 5659 5658 5657 5655 5652 5650 5647 5644 5642 5639 5637 5634 5631 5629 5626 5624 5622 5621 5620 5618 5617 5616 5614 5613 5612 5611 5610 5608 5606 5605 5603 5602 5600 5599 5598 5597 5596
5658 5657 5655 5656 5655 5654 5652 5651 5650 5648 5646 5643 5641 5638 5636 5633 5630 5628 5625 5623 5621 5619 5617 5616 5614 5613 5611 5610 5609 5608 5607 5606 5604 5602 5600 5598 5597 5595 5594 5593 5592 5590 5589
5652 5651 5650 5650 5649 5648 5646 5644 5643 5641 5639 5636 5634 5632 5630 5627 5624 5621 5618 5616 5614 5613 5611 5610 5609 5607 5606 5604 5603 5602 5601 5600 5598 5596 5594 5592 5589 5586 5585 5585 5584 5583 5582
5647 5646 5645 5644 5643 5642 5640 5638 5636 5634 5632 5630 5627 5625 5622 5620 5617 5614 5612 5610 5608 5607 5605 5605 5603 5601 5599 5596 5595 5595 5595 5594 5592 5590 5588 5586 5583 5580 5577 5576 5575 5574 5574
5642 5641 5640 5639 5638 5637 5635 5633 5630 5628 5626 5623 5621 5618 5616 5613 5611 5609 5606 5604 5602 5600 5599 5598 5596 5595 5592 5589 5587 5586 5588 5587 5586 5583 5581 5579 5577 5574 5573 5571 5568 5568 5566
5637 5635 5634 5633 5632 5631 5629 5627 5625 5622 5620 5617 5614 5612 5610 5608 5605 5603 5601 5599 5597 5594 5593 5592 5590 5588 5585 5582 5580 5579 5580 5580 5578 5576 5574 5572 5571 5568 5567 5567 5565 5564 5562
5632 5630 5628 5627 5626 5625 5623 5621 5619 5616 5614 5611 5609 5606 5604 5602 5599 5597 5595 5593 5591 5589 5587 5586 5584 5582 5580 5576 5573 5572 5574 5573 5571 5569 5567 5565 5563 5561 5560 5561 5560 5558 5557
5625 5623 5622 5621 5620 5619 5617 5615 5613 5611 5608 5605 5602 5600 5598 5596 5594 5592 5589 5587 5585 5583 5581 5579 5578 5576 5574 5570 5567 5565 5567 5567 5564 5562 5560 5557 5555 5554 5555 5556 5555 5554 5552
5617 5615 5614 5614 5614 5612 5610 5609 5608 5605 5602 5599 5596 5593 5591 5590 5588 5586 5583 5581 5579 5577 5575 5573 5571 5569 5567 5563 5560 5558 5560 5558 5557 5556 5554 5551 5548 5548 5548 5548 5549 5547 5546
5609 5608 5607 5607 5607 5606 5605 5604 5602 5599 5596 5593 5590 5588 5586 5584 5582 5580 5577 5575 5573 5571 5569 5567 5565 5562 5560 5556 5553 5551 5550 5549 5549 5548 5547 5544 5541 5541 5540 5541 5540 5539 5539
5602 5601 5601 5600 5599 5599 5598 5598 5595 5592 5589 5586 5584 5581 5579 5577 5575 5573 5571 5569 5567 5565 5563 5560 5558 5556 5554 5550 5547 5544 5542 5540 5540 5540 5538 5536 5535 5534 5534 5533 5532 5532 5533
5596 5594 5593 5593 5592 5591 5590 5590 5588 5585 5583 5581 5578 5575 5573 5570 5568 5565 5564 5562 5560 5558 5555 5553 5551 5549 5547 5545 5542 5538 5535 5533 5533 5532 5530 5529 5528 5527 5527 5526 5526 5526 5526
5589 5587 5587 5586 5585 5583 5583 5582 5580 5578 5576 5574 5571 5568 5566 5563 5560 5558 5555 5554 5552 5550 5546 5545 5543 5541 5540 5537 5533 5532 5531 5529 5528 5526 5526 5525 5524 5523 5522 5521 5520 5519 5518
5583 5581 5580 5579 5578 5576 5576 5575 5573 5572 5570 5567 5564 5561 5558 5555 5553 5550 5547 5542 5541 5538 5535 5534 5532 5532 5530 5527 5526 5524 5522 5520 5519 5519 5520 5519 5517 5516 5515 5514 5513 5512 5511